DELTA 1 DEB *, 18591

Orbit data source: Space-Track

DELTA 1 DEB *, 18591 is space debris in LEO originally from a launch on Thu, 29 Jul 1976 UTC launched from the Air Force Western Test Range (AFWTR). Debris objects in space refer to the collection of defunct objects orbiting the Earth. Examples of debris include non-operational satellites, rocket bodies, and fragments generated from explosions, collisions, or faulty payload assembly.

Loading next visibility...
Identifier
18591, 1976-077FD
Orbit
LEO
Country
Flag of USUS
Related business
Manufacturer
Unknown
Mission
Spacecraft
Bus & Motor
Unknown
Mass
Unknown
Launch date (UTC)
1976-07-29 (50 years ago)
Launch vehicle
Unknown
Launch site
Air Force Western Test Range (AFWTR)
Object type
Payload
Rocket body
Debris
Shape & HBR
Unknown shape, 1.1 m
Radar Cross Section
Medium (>0.1 m² and <1 m²)

Expand to show TLE details & history
Last TLE update: 7 hours ago

TLE from 7 hours ago
0 DELTA 1 DEB *
1 18591U 76077FD  26256.49786709  .00000090  00000-0  23688-2 0  9990
2 18591 101.0035 251.3009 1105363  44.1445  99.0024 10.59569953601145
Epoch: 2026-09-13T11:56Z
TLE epoch observation values (Epoch: 2026-09-13T11:56:55.716Z)
Latitude
24.23521°
Longitude
-95.42302°
Altitude
2,632.972 km
Speed
6.557 km/s
True Right ascension
05h 05m 12s
True Declination
24° 08' 01"
Sunlit
Object was in daylight at epoch
Visualization orbit readout
Latitude
Unknown
Longitude
Unknown
Altitude
Unknown
Speed
Unknown
Apparent Right ascension
Unknown
Apparent Declination
Unknown
Sunlit
N/A
Visualization observer readout
Local Sidereal Time
11:33:19
Azimuth
Unknown
Elevation
Unknown
Doppler factor
Unknown
Orbital elements
Apogee altitude
3,343.408 km
Perigee altitude
1,408.156 km
Semi-major axis
8,753.919 km
Eccentricity
0.11054
Inclination
101.0035°
RAAN
251.3009°
Arg. of periapsis
44.1445°
True anomaly
111.15642°
Mean anomaly
99.0024°
Eccentric anomaly
105.11652°
Mean motion
2.64996 °/min
Orbital period
135.85 mins
BSTAR
0.0023688
Loading maneuver chart data...
Computing Atmospheric mass density...
Loading historical data...
Loading historical data...
Loading historical data...
Loading historical data...
Loading historical data...
Loading historical data...
Loading historical data...

Documentation

Showing up to 5 results
|